Flag Weather past 2 weeks in Elverum, Norway

Now
21 °F

Cold.


Feels Like: 21 °F
Forecast: 25 / 29 °F
Wind: 2 mph from North

Location: Haugedalshogda

Current Time: Nov 26, 2014 at 4:37:18 PM

Latest Report: Nov 26, 2014 at 3:00 PM


Visibility: N/A

Pressure: 30.41 "Hg

Humidity: 95%

Dew point: 20 °F

Location of ElverumLocation

Historic Weather in Elverum — Graph

°F

Elverum temperature yesterday

Maximum temperature yesterday: 32 °F (at 3:00 PM)
Minimum temperature yesterday: 28 °F (at 8:00 AM)
Average temperature yesterday: 30 °F

Past Weeks' High & Low Weather Summary

 TemperatureHumidityPressure
High40 °F (Nov 15, 1:00 PM)98% (Nov 25, 7:00 AM)30.58 "Hg (Nov 25, 7:00 AM)
Low21 °F (Nov 26, 10:00 AM)85% (Nov 13, 1:00 PM)29.75 "Hg (Nov 24, 1:00 PM)
Average32 °F95%30.30 "Hg
* Reported Nov 11 3:00 PM — Nov 26 3:00 PM, Elverum, Weather by CustomWeather, © 2014

Note: Actual official high and low records may vary slightly from our data, if they occured in-between our weather recording intervals... More about our weather records

Advertising

Elverum weather history for previous 24 hours

 ConditionsComfort  
Time TempWeatherWind HumidityBarometerVisibility
3:00 PM
Nov 26
21 °FCold.2 mph95%30.41 "HgN/A
2:00 PM22 °FCold.2 mph95%30.41 "HgN/A
1:00 PM22 °FCold.2 mph95%30.42 "HgN/A
12:00 PM22 °FCold.N/A94%30.43 "HgN/A
11:00 AM21 °FCold.N/A95%30.44 "HgN/A
10:00 AM21 °FCold.N/A94%30.44 "HgN/A
9:00 AM21 °FCold.N/A95%30.44 "HgN/A
8:00 AM22 °FCold.N/A96%30.43 "HgN/A
7:00 AM23 °FCold.N/A97%30.42 "HgN/A
6:00 AM24 °FCold.N/A97%30.41 "HgN/A
5:00 AM25 °FCold.3 mph98%30.41 "HgN/A
3:00 AM27 °FChilly.5 mph98%30.40 "HgN/A
2:00 AM28 °FChilly.2 mph98%30.39 "HgN/A
1:00 AM28 °FChilly.2 mph98%30.39 "HgN/A
12:00 AM29 °FChilly.1 mph98%30.37 "HgN/A
11:00 PM
Nov 25
29 °FChilly.1 mph98%30.36 "HgN/A
10:00 PM29 °FChilly.3 mph98%30.34 "HgN/A
9:00 PM30 °FChilly.1 mph98%30.33 "HgN/A
8:00 PM30 °FChilly.3 mph98%30.31 "HgN/A
7:00 PM30 °FChilly.3 mph98%30.30 "HgN/A
6:00 PM30 °FChilly.2 mph97%30.27 "HgN/A
5:00 PM31 °FChilly.3 mph97%30.26 "HgN/A
4:00 PM31 °FChilly.2 mph97%30.24 "HgN/A
Weather by CustomWeather, © 2014

See weather overviewHow to use our weather pages